Location: Ahausen
(50.4985°N, 8.2722°E)
Time: 01:27:41
(UTC+00:00)

Exosat Rocket - Pass Details

Date: 18 September 2020
Orbit: 761 x 2514 km, 72.3° (Epoch: 23 October)

Event Time Altitude Azimuth Distance (km) Brightness Sun altitude
Rises 18:59:16 0° 174° (S) 3,666 6.8 -14.2°
Reaches altitude 10° 19:02:15 10° 164° (SSE) 2,549 5.8 -14.6°
Maximum altitude 19:06:59 29° 105° (ESE) 1,418 4.3 -15.3°
Drops below altitude 10° 19:11:16 10° 46° (NE) 2,304 5.8 -16.0°
Sets 19:13:50 0° 35° (NE) 3,252 6.6 -16.3°
